User: anonymous   Login
Location: Kellogg
(38.0159°N, 90.0546°W)
Time: 15:17:55
(UTC+00:00)
Language:

Explorer 11/Cluster Stage 4 - Orbit

View from above orbital plane
View from above orbital plane
View from above satellite
View from above satellite

Ground track
Ground track

The orbit data is extracted from the following two-line orbital elements,

1   107U 61013A   24256.75142547  .00011042  00000-0  13897-2 0  9991
2   107  28.7918  47.3066 0516066 270.0382  84.1081 14.16633965184668
Epoch (UTC): 12 September 2024 18:02:03
Eccentricity: 0.0516066
inclination: 28.7918°
perigee height: 464 km
apogee height: 1209 km
right ascension of ascending node: 47.3066°
argument of perigee: 270.0382°
revolutions per day: 14.16633965
mean anomaly at epoch: 84.1081°
orbit number at epoch: 18466

The dashed part of the orbit path shows where the satellite is in the earth's shadow,  

DLR